Hourly Data Report for October 05, 2017

All times are specified in Local Standard Time (LST). Add 1 hour to adjust for Daylight Saving Time where and when it is observed.

CHESTERFIELD INLET A
NUNAVUT

63°20'50.000" N
90°43'52.000" W
9.80 m
2300710
YCS

Related Data

No related data is available for this station

Download Data

Hourly Data (October 2017)
Hourly Data Report for October 5, 2017
Temp Definition
°C
Dew Point Temp Definition
°C
Rel Hum Definition
%
Wind Dir Definition
10's deg

Wind Spd Definition
km/h
Visibility Definition
km
Stn Press Definition
kPa
Hmdx Definition


Wind Chill Definition


Weather Definition


TIME
00:00 Legend Double Dagger -3.9 -5.5 89 29 52 LegendMM 99.25   -14 LegendNANA
01:00 Legend Double Dagger -3.9 -5.7 87 29 52 LegendMM 99.22   -14 LegendNANA
02:00 Legend Double Dagger -4.1 -5.5 90 29 53 LegendMM 99.19   -14 LegendNANA
03:00 Legend Double Dagger -3.9 -5.5 89 29 54 LegendMM 99.17   -14 LegendNANA
04:00 Legend Double Dagger -4.4 -5.9 89 29 50 LegendMM 99.16   -14 LegendNANA
05:00 Legend Double Dagger -4.3 -5.7 90 29 50 LegendMM 99.12   -14 LegendNANA
06:00 Legend Double Dagger -4.2 -5.7 90 30 54 LegendMM 99.11   -14 LegendNANA
07:00 Legend Double Dagger -3.8 -5.6 88 29 54 LegendMM 99.06   -14 LegendNANA
08:00 Legend Double Dagger -3.3 -4.7 90 30 49 LegendMM 99.03   -13 LegendNANA
09:00 Legend Double Dagger -2.6 -4.5 87 31 45 LegendMM 99.03   -11 LegendNANA
10:00 Legend Double Dagger -2.4 -4.9 83 32 46 LegendMM 99.04   -11 LegendNANA
11:00 Legend Double Dagger -1.8 -5.4 76 33 36 LegendMM 99.05   -9 LegendNANA
12:00 Legend Double Dagger -2.5 -7.4 69 32 40 LegendMM 99.11   -11 LegendNANA
13:00 Legend Double Dagger -2.4 -6.8 72 33 37 LegendMM 99.18   -10 LegendNANA
14:00 Legend Double Dagger -1.9 -6.5 71 33 39 LegendMM 99.21   -10 LegendNANA
15:00 Legend Double Dagger -2.5 -6.5 74 32 39 LegendMM 99.26   -11 LegendNANA
16:00 Legend Double Dagger -2.4 -6.0 76 31 39 LegendMM 99.30   -11 LegendNANA
17:00 Legend Double Dagger -2.7 -6.4 76 31 44 LegendMM 99.34   -11 LegendNANA
18:00 Legend Double Dagger -3.1 -6.4 78 31 36 LegendMM 99.37   -11 LegendNANA
19:00 Legend Double Dagger -3.3 -6.6 78 31 41 LegendMM 99.38   -12 LegendNANA
20:00 Legend Double Dagger -3.4 -6.2 81 31 39 LegendMM 99.40   -12 LegendNANA
21:00 Legend Double Dagger -3.6 -6.5 80 32 37 LegendMM 99.41   -12 LegendNANA
22:00 Legend Double Dagger -3.8 -6.7 80 32 38 LegendMM 99.40   -12 LegendNANA
23:00 Legend Double Dagger -3.7 -6.5 80 32 37 LegendMM 99.41   -12 LegendNANA

Notes on Data Quality.

Legend

  • E = Estimated
  • M = Missing
  • NA = Not Available
  • ‡ = Partner data that is not subject to review by the National Climate Archives
Date modified: